AirNav   Air Wisconsin pilot careers
 
 955 users online  

2AK1 Blair Lake Airport
Fairbanks (Ft Wainwright), Alaska, USA

GOING TO FAIRBANKS (FT WAINWRIGHT)?


FAA INFORMATION EFFECTIVE 29 MARCH 2018

Location

FAA Identifier: 2AK1
Lat/Long: 64-21-49.4610N / 147-21-49.5290W
64-21.824350N / 147-21.825483W
64.3637392 / -147.3637581
(estimated)
Elevation: 910 ft. / 277 m (estimated)
Variation: 28E (1985)
From city: 29 miles SE of central business district of the associated city
Time zone: UTC -8 (UTC -9 during Standard Time)
Zip code: 99714

Airport Operations

Airport use: Private use. Permission required prior to landing
Activation date: 06/1971
Control tower: no
ARTCC: ANCHORAGE CENTER
FSS: FAIRBANKS FLIGHT SERVICE STATION [907-474-0788]
Attendance: UNATNDD
Wind indicator: yes
Segmented circle: no

Nearby radio navigation aids

VOR radial/distance  VOR name  Freq  Var
FAIr126/31.0FAIRBANKS VORTAC108.6021E

 
NDB name  Hdg/Dist  Freq  Var  ID
CHENA156/28.725717ECUN -.-. ..- -.

Airport Services

Airframe service: NONE
Powerplant service: NONE
Bottled oxygen: NONE
Bulk oxygen: NONE

Runway Information

Runway 15/33

Dimensions: 1530 x 50 ft. / 466 x 15 m
Surface: turf
RUNWAY 15  RUNWAY 33
Gradient: 1.5%1.5%
Traffic pattern: leftleft
Markings: nonenone
Runway end identifier lights: nono
Obstructions: trees, 800 ft. from runway, 15:1 slope to cleartrees hill, 2500 ft. from runway, 15:1 slope to clear

Airport Ownership and Management from official FAA records

Ownership: U.S. Army
Owner: U.S. ARMY
DPTSM
FT. RICHARDSON, AK 99505
Phone 907-384-2230
Manager: OPNS OFFICER
WAAF
FT WAINWRIGHT, AK 99703
Phone 907-353-6320

Airport Operational Statistics

Aircraft operations: avg 25/month *
67% military
33% transient general aviation
* for 12-month period ending 07 July 1976

Additional Remarks

WASHED AREA NEAR PARKING AREA.
SHRUBS 3' - 8'HIGH ON BOTH SIDES OF RWY.

Instrument Procedures

There are no published instrument procedures at 2AK1.

Some nearby airports with instrument procedures:

PAEI - Eielson Air Force Base (19 nm N)
PAFB - Ladd Army Airfield (29 nm N)
PAFA - Fairbanks International Airport (30 nm NW)
PANN - Nenana Municipal Airport (46 nm W)
PABI - Allen Army Airfield (48 nm SE)
 
Loc | Ops | Rwys | IFR | FBO | Links
Com | Nav | Svcs | Stats | Notes

Crowley
 
Area around 2AK1 (Blair Lake Airport)
 
Road maps at: MapQuest Bing Google
 
Aerial photo
WARNING: Photo may not be current or correct
Aerial photo of 2AK1 (Blair Lake Airport)
Do you have a better or more recent aerial photo of Blair Lake Airport that you would like to share? If so, please send us your photo.

 
Sectional chart

 
Airport distance calculator
Flying to Blair Lake Airport? Find the distance to fly.

From to 2AK1

Sunrise and sunset
Times for 22-Apr-2018
 Local
(UTC-8)
 Zulu
(UTC)
Morning civil twilight04:5012:50
Sunrise05:5213:52
Sunset21:4405:44
Evening civil twilight22:4506:45

Current date and time
Zulu (UTC)  23-Apr-2018 01:40:21
Local (UTC-8)  22-Apr-2018 17:40:21
 
METAR
PAEI 
19nm N 
230056Z 00000KT 10SM CLR 11/M10 A2976 RMK AO2A SLP086 T01071096 $
PAFB 
29nm N 
230058Z AUTO 00000KT 10SM CLR 09/M09 A2977 RMK AO2 SLP088 T00931093
PAFA 
30nm NW 
230053Z 00000KT 10SM FEW030 FEW060 SCT200 11/M08 A2977 RMK AO2 SLP088 T01061078 $
TAF
PAEI 
19nm N 
222000Z 2220/2402 VRB06KT 9999 SKC QNH2967INS BECMG 2315/2316 11009KT 9999 FEW070 QNH2955INS TX08/2320Z TN00/2315Z
NOTAMs
Click for the latest NOTAMs
NOTAMs are issued by the DoD/FAA and will open in a separate window not controlled by AirNav.

 

 
 

Would you like to see your business listed on this page?

 If your business provides an interesting product or service to pilots, flight crews, aircraft, or users of the Blair Lake Airport, you should consider listing it here.  To start the listing process, click on the button below
 
Add a business
 

Other Pages about Blair Lake Airport

Update a link
 
Copyright © AirNav, LLC. All rights reserved. Privacy Policy  Contact